Pickens County Airport, SC

9:26 AM EDT on April 26, 2017 (GMT -0400)
Pickens County

Weather History for KLQK - April, 2014

Change the Weather History Date:

Sunday, April 6, 2014

  Actual Average Record
Temperature  
Mean Temperature 54 °F -  
Max Temperature 59 °F 69 °F 65 °F (2015)
Min Temperature 48 °F 43 °F 31 °F (2016)
Degree Days  
Heating Degree Days 12    
Growing Degree Days 4 (Base 50)    
Moisture  
Dew Point 6 °F    
Average Humidity 15    
Maximum Humidity 28    
Minimum Humidity 9    
Precipitation  
Precipitation 0.00 in - - ()
Sea Level Pressure  
Sea Level Pressure 30.07 in    
Wind  
Wind Speed - (North)    
Max Wind Speed -    
Max Gust Speed -    
Visibility 10 miles    
Events Rain    
Averages and records for this station are not official NWS values.
T = Trace of Precipitation, MM = Missing Value Source: NWS Daily Summary

Daily Weather History Graph

Daily Weather History Graph

Search for Another Location

Airport or City:

Trip Planner

Search our weather history database for the weather conditions in past years. The results will help you decide how hot, cold, wet, or windy it might be!

Date:

Astronomy

Apr. 06, 2014 Rise Set
Actual Time 7:10 AM EDT 7:55 PM EDT
Civil Twilight 6:45 AM EDT 8:21 PM EDT
Nautical Twilight 6:15 AM EDT 8:51 PM EDT
Astronomical Twilight 5:44 AM EDT 9:22 PM EDT
Moon 12:18 PM EDT (4/6) 1:43 AM EDT (4/6)
Length of Visible Light 13h 36m
Length of Day
12h 45m
Waxing Crescent, 43% of the Moon is Illuminated
Apr 6
Waxing Crescent
Apr 7
First Quarter
Apr 15
Full
Apr 22
Last Quarter
Apr 29
New

Hourly Weather History & Observations

Time (EDT) Temp. Dew Point Humidity Pressure Visibility Wind Dir Wind Speed Gust Speed Precip Events Conditions
12:15 AM 49.8 °F 13.6 °F 24% 30.03 in 10.0 mi North - - N/A   Clear
12:35 AM 48.6 °F 16.5 °F 28% 30.03 in 10.0 mi North - - N/A   Clear
12:55 AM 48.9 °F 16.5 °F 28% 30.04 in 10.0 mi North - - N/A   Clear
1:15 AM 50.5 °F 12.4 °F 22% 30.03 in 10.0 mi North - - N/A   Clear
1:35 AM 54.1 °F 1.4 °F 12% 30.03 in 10.0 mi North - - N/A   Clear
1:55 AM 55.4 °F - N/A% 30.03 in 10.0 mi North - - N/A   Clear
2:15 AM 55.9 °F - N/A% 30.05 in 10.0 mi North - - N/A   Clear
2:35 AM 55.8 °F - N/A% 30.05 in 10.0 mi North - - N/A   Clear
2:55 AM 55.8 °F - N/A% 30.04 in 10.0 mi North - - N/A   Clear
3:15 AM 56.1 °F - N/A% 30.04 in 10.0 mi North - - N/A   Clear
3:35 AM 55.9 °F - N/A% 30.03 in 10.0 mi North - - N/A   Clear
3:55 AM 55.6 °F - N/A% 30.04 in 10.0 mi North - - N/A   Clear
4:15 AM 55.4 °F - N/A% 30.04 in 10.0 mi North - - N/A   Clear
4:35 AM 55.0 °F - N/A% 30.06 in 10.0 mi North - - N/A   Clear
4:55 AM 54.9 °F - N/A% 30.07 in 10.0 mi North - - N/A   Clear
5:15 AM 54.5 °F - N/A% 30.07 in 10.0 mi North - - N/A   Clear
5:35 AM 54.5 °F - N/A% 30.07 in 10.0 mi North - - N/A   Scattered Clouds
5:55 AM 54.0 °F - N/A% 30.08 in 10.0 mi North - - N/A   Scattered Clouds
6:15 AM 53.4 °F - N/A% 30.08 in 10.0 mi North - - N/A   Clear
6:35 AM 52.7 °F - N/A% 30.07 in 10.0 mi North - - N/A   Clear
6:55 AM 52.0 °F - N/A% 30.08 in 10.0 mi North - - N/A   Clear
7:15 AM 51.8 °F - N/A% 30.07 in 10.0 mi North - - N/A   Clear
7:35 AM 51.8 °F - N/A% 30.07 in 10.0 mi North - - N/A   Clear
7:55 AM 51.6 °F - N/A% 30.09 in 10.0 mi North - - N/A   Clear
8:15 AM 52.0 °F - N/A% 30.10 in 10.0 mi North - - N/A   Clear
8:35 AM 52.3 °F - N/A% 30.10 in 10.0 mi North - - N/A   Clear
8:55 AM 52.9 °F - N/A% 30.10 in 10.0 mi North - - N/A   Clear
9:15 AM 53.4 °F - N/A% 30.10 in 10.0 mi North - - N/A   Clear
9:35 AM 53.8 °F - N/A% 30.10 in 10.0 mi North - - N/A   Clear
9:55 AM 53.8 °F - N/A% 30.13 in 10.0 mi North - - N/A   Clear
10:15 AM 53.8 °F - N/A% 30.13 in 10.0 mi North - - N/A   Clear
10:35 AM 54.1 °F - N/A% 30.14 in 10.0 mi North - - N/A   Clear
10:55 AM 54.1 °F - N/A% 30.16 in 10.0 mi North - - N/A   Scattered Clouds
11:15 AM 54.3 °F -3.6 °F 9% 30.14 in 10.0 mi North - - N/A   Scattered Clouds
11:35 AM 54.5 °F -3.1 °F 9% 30.13 in 10.0 mi North - - N/A   Scattered Clouds
11:55 AM 55.4 °F -2.7 °F 9% 30.13 in 10.0 mi North - - N/A   Mostly Cloudy
12:15 PM 55.6 °F -2.2 °F 9% 30.12 in 10.0 mi North - - N/A   Overcast
12:35 PM 56.3 °F -2.6 °F 9% 30.12 in 10.0 mi North - - N/A   Overcast
12:55 PM 57.0 °F -3.1 °F 9% 30.11 in 10.0 mi North - - N/A   Overcast
1:15 PM 57.7 °F - N/A% 30.10 in 10.0 mi North - - N/A   Mostly Cloudy
1:35 PM 58.8 °F - N/A% 30.10 in 10.0 mi North - - N/A   Clear
1:55 PM 59.4 °F - N/A% 30.10 in 10.0 mi North - - N/A   Clear
2:15 PM 59.4 °F - N/A% 30.09 in 10.0 mi North - - N/A   Clear
2:35 PM 59.7 °F - N/A% 30.09 in 10.0 mi North - - N/A   Scattered Clouds
2:55 PM 59.2 °F - N/A% 30.08 in 10.0 mi North - - N/A   Overcast
3:15 PM 59.2 °F - N/A% 30.08 in 10.0 mi North - - N/A   Overcast
3:35 PM 59.7 °F - N/A% 30.08 in 10.0 mi North - - N/A   Overcast
4:15 PM 59.2 °F - N/A% 30.07 in 10.0 mi North - - N/A   Overcast
4:55 PM 58.3 °F -0.6 °F 9% 30.07 in 10.0 mi North - - N/A   Overcast
5:15 PM 58.1 °F -0.4 °F 9% 30.06 in 10.0 mi North - - N/A   Overcast
5:35 PM 58.1 °F 0.5 °F 10% 30.04 in 10.0 mi North - - N/A   Overcast
5:55 PM 58.1 °F 0.5 °F 10% 30.03 in 10.0 mi North - - N/A   Overcast
6:15 PM 58.1 °F 0.7 °F 10% 30.02 in 10.0 mi North - - N/A   Overcast
6:35 PM 58.1 °F 1.0 °F 10% 30.02 in 10.0 mi North - - N/A   Overcast
6:55 PM 57.7 °F 1.9 °F 11% 30.03 in 10.0 mi North - - N/A   Overcast
7:15 PM 57.4 °F 3.4 °F 11% 30.05 in 10.0 mi North - - N/A   Overcast
7:35 PM 57.2 °F 4.6 °F 12% 30.04 in 10.0 mi North - - N/A   Overcast
7:55 PM 56.8 °F 5.4 °F 13% 30.03 in 10.0 mi North - - N/A   Overcast
8:15 PM 56.5 °F 5.9 °F 13% 30.03 in 10.0 mi North - - N/A   Overcast
8:35 PM 56.3 °F 6.3 °F 13% 30.04 in 10.0 mi North - - N/A   Overcast
8:55 PM 56.1 °F 7.2 °F 14% 30.05 in 10.0 mi North - - N/A   Overcast
9:15 PM 55.9 °F 7.5 °F 14% 30.06 in 10.0 mi North - - N/A   Overcast
9:35 PM 55.4 °F 8.6 °F 15% 30.07 in 10.0 mi North - - N/A   Overcast
9:55 PM 55.2 °F 9.0 °F 16% 30.06 in 10.0 mi North - - N/A   Overcast
10:15 PM 54.7 °F 10.8 °F 17% 30.07 in 10.0 mi North - - N/A Rain Light Rain
10:35 PM 54.1 °F 12.2 °F 19% 30.06 in 10.0 mi North - - N/A Rain Rain
10:55 PM 53.1 °F 14.9 °F 22% 30.04 in 10.0 mi North - - N/A   Drizzle
11:15 PM 52.0 °F 18.1 °F 26% 30.04 in 10.0 mi North - - N/A   Light Drizzle
11:35 PM 51.8 °F 18.1 °F 27% 30.03 in 10.0 mi North - - N/A   Overcast
11:55 PM 52.0 °F 17.2 °F 25% 30.04 in 10.0 mi North - - N/A   Overcast